Monticello, AR

7:36 AM CDT on August 28, 2016 (GMT -0500)
Monticello Municipal-Ellis

Weather History for KLLQ - June, 2013

Change the Weather History Date:

Thursday, June 6, 2013

  Actual Average Record
Temperature  
Mean Temperature 73 °F -  
Max Temperature 80 °F 84 °F 100 °F (2011)
Min Temperature 66 °F 64 °F 53 °F (1969)
Cooling Degree Days 8    
Growing Degree Days 23 (Base 50)    
Moisture  
Dew Point 68 °F    
Average Humidity 85    
Maximum Humidity 97    
Minimum Humidity 67    
Precipitation  
Precipitation 0.68 in - - ()
Sea Level Pressure  
Sea Level Pressure 29.83 in    
Wind  
Wind Speed 3 mph (WNW)    
Max Wind Speed 24 mph    
Max Gust Speed 34 mph    
Visibility 8 miles    
Events Rain , Thunderstorm    
Averages and records for this station are not official NWS values.
T = Trace of Precipitation, MM = Missing Value Source: NWS Daily Summary

Daily Weather History Graph

Daily Weather History Graph

Search for Another Location

Airport or City:

Trip Planner

Search our weather history database for the weather conditions in past years. The results will help you decide how hot, cold, wet, or windy it might be!

Date:

Astronomy

Jun. 06, 2013 Rise Set
Actual Time 5:56 AM CDT 8:15 PM CDT
Civil Twilight 5:27 AM CDT 8:43 PM CDT
Nautical Twilight 4:52 AM CDT 9:19 PM CDT
Astronomical Twilight 4:14 AM CDT 9:57 PM CDT
Moon 4:33 AM CDT (6/6) 6:40 PM CDT (6/6)
Length of Visible Light 15h 16m
Length of Day
14h 18m
Waning Crescent, 3% of the Moon is Illuminated
Jun 6
Waning Crescent
Jun 8
New
Jun 16
First Quarter
Jun 23
Full
Jun 29
Last Quarter

Hourly Weather History & Observations

Time (CDT) Temp. Heat Index Dew Point Humidity Pressure Visibility Wind Dir Wind Speed Gust Speed Precip Events Conditions
12:53 AM 72.0 °F - 69.1 °F 91% 29.85 in 10.0 mi Calm Calm - N/A   Clear
1:53 AM 71.1 °F - 69.1 °F 93% 29.83 in 8.0 mi Calm Calm - N/A   Clear
2:53 AM 70.0 °F - 69.1 °F 97% 29.81 in 5.0 mi WNW 3.5 mph - N/A   Mostly Cloudy
3:53 AM 72.0 °F - 69.1 °F 91% 29.81 in 8.0 mi Calm Calm - N/A   Mostly Cloudy
4:53 AM 71.1 °F - 69.1 °F 93% 29.81 in 5.0 mi Calm Calm - N/A   Partly Cloudy
5:53 AM 70.0 °F - 68.0 °F 93% 29.82 in 5.0 mi Calm Calm - N/A   Clear
6:53 AM 71.1 °F - 69.1 °F 93% 29.83 in 6.0 mi Calm Calm - N/A   Clear
7:53 AM 73.9 °F - 69.1 °F 85% 29.84 in 10.0 mi Calm Calm - N/A   Clear
8:53 AM 75.9 °F - 69.1 °F 79% 29.83 in 10.0 mi NE 6.9 mph - N/A   Overcast
9:53 AM 79.0 °F - 69.1 °F 72% 29.83 in 10.0 mi NNE 6.9 mph - N/A   Clear
10:53 AM 80.1 °F 82.7 °F 68.0 °F 67% 29.83 in 10.0 mi NNW 4.6 mph - N/A   Clear
11:53 AM 80.1 °F 82.9 °F 69.1 °F 69% 29.86 in 10.0 mi Calm Calm - N/A   Mostly Cloudy
12:09 PM 78.8 °F - 68.0 °F 69% 29.87 in 10.0 mi Calm Calm - N/A   Mostly Cloudy
12:32 PM 78.8 °F - 69.8 °F 74% 29.87 in 10.0 mi WNW 3.5 mph - N/A   Overcast
12:53 PM 79.0 °F - 69.1 °F 72% 29.85 in 10.0 mi North 3.5 mph - N/A Thunderstorm Overcast
1:09 PM 73.4 °F - 66.2 °F 78% 29.91 in 1.5 mi West 24.2 mph 34.5 mph 0.08 in Rain , Thunderstorm Light Rain
1:12 PM 69.8 °F - 64.4 °F 83% 29.91 in 0.8 mi West 17.3 mph 34.5 mph 0.23 in Rain , Thunderstorm Heavy Rain
1:26 PM 66.2 °F - 64.4 °F 94% 29.89 in 1.0 mi Variable 6.9 mph - 0.48 in Rain , Thunderstorm Heavy Thunderstorms and Rain
1:32 PM 66.2 °F - 64.4 °F 94% 29.89 in 2.0 mi West 11.5 mph 17.3 mph 0.51 in Rain , Thunderstorm Heavy Thunderstorms and Rain
1:37 PM 66.2 °F - 64.4 °F 94% 29.88 in 3.0 mi West 8.1 mph 17.3 mph 0.53 in Rain , Thunderstorm Thunderstorms and Rain
1:53 PM 66.9 °F - 64.9 °F 93% 29.86 in 6.0 mi West 8.1 mph - 0.55 in Rain , Thunderstorm Light Thunderstorms and Rain
2:42 PM 68.0 °F - 66.2 °F 94% 29.81 in 4.0 mi Variable 3.5 mph - 0.10 in Rain Rain
2:53 PM 68.0 °F - 66.0 °F 93% 29.78 in 7.0 mi Variable 3.5 mph - 0.12 in Rain , Thunderstorm Rain
3:12 PM 69.8 °F - 66.2 °F 88% 29.78 in 10.0 mi Variable 5.8 mph - 0.00 in Rain Light Rain
3:53 PM 73.9 °F - 69.1 °F 85% 29.78 in 10.0 mi NNW 4.6 mph - 0.01 in Rain Light Rain
4:44 PM 77.0 °F - 69.8 °F 78% 29.78 in 10.0 mi Calm Calm - 0.00 in   Mostly Cloudy
4:53 PM 75.9 °F - 69.1 °F 79% 29.76 in 10.0 mi Variable 4.6 mph - 0.00 in   Mostly Cloudy
5:13 PM 78.8 °F - 69.8 °F 74% 29.77 in 10.0 mi Variable 3.5 mph - N/A   Scattered Clouds
5:53 PM 75.9 °F - 68.0 °F 76% 29.80 in 10.0 mi Variable 4.6 mph - N/A   Partly Cloudy
6:53 PM 75.9 °F - 69.1 °F 79% 29.79 in 10.0 mi NW 4.6 mph - N/A   Clear
7:53 PM 73.9 °F - 69.1 °F 85% 29.81 in 10.0 mi WNW 3.5 mph - N/A   Overcast
8:53 PM 73.0 °F - 69.1 °F 87% 29.83 in 10.0 mi West 3.5 mph - N/A   Overcast
9:53 PM 73.0 °F - 70.0 °F 90% 29.84 in 10.0 mi West 3.5 mph - N/A   Clear
10:53 PM 72.0 °F - 69.1 °F 91% 29.84 in 10.0 mi West 5.8 mph - N/A   Partly Cloudy
11:53 PM 71.1 °F - 69.1 °F 93% 29.84 in 10.0 mi WNW 5.8 mph - N/A   Overcast